Torna al catalogo

STARLINK-35048

AttivoComunicazioniSSO
NORAD 65286·PAYLOAD·🇺🇸 United States

Lanciato Aug 22, 2025 da Vandenberg Space Force Base

Loading…

Prossimi Passaggi (prossime 24 ore)

TLE

AggiornatoSource: CelesTrak SupGP

Epoca: Sep 14, 2026, 15:08 UTC

1 65286C 25184P   26257.63104167  .00024281  00000+0  75368-3 0  2572
2 65286  97.2834 305.6208 0000883 104.2203 149.7217 15.33430041    13

Traccia STARLINK-35048 in tempo reale con AllMySat

Download on the App Store